This demonstration page uses our WeatherBlox Daily Observations layout. Learn more.

Left ArrowRight Arrow

Hourly Observations for August 18, 2015

Temp ( °F °C ) Dew Point ( °F °C ) Humidity (%) Winds ( mph kmh ) Pressure ( in mb ) Visibility ( mi km ) Precip ( " mm )
12:15 am 00:15 Cloudy with Mist and Fog 63 17.3 62 16.5 95 95 ENE 7 11 29.85 1011 5 8 N/A
12:35 am 00:35 Cloudy with Mist and Fog 63 17.3 62 16.5 95 95 E 9 15 29.85 1011 3 5 N/A
12:55 am 00:55 Cloudy with Mist and Fog 63 17.2 62 16.5 96 96 E 9 15 29.83 1010 3 5 N/A
1:15 am 01:15 Cloudy with Mist and Fog 63 17.2 62 16.5 96 96 E 8 13 29.83 1010 5 8 N/A
1:35 am 01:35 Cloudy with Mist and Fog 63 17.2 62 16.5 96 96 E 6 9 29.80 1009 3 5 N/A
1:55 am 01:55 Cloudy with Mist and Fog 63 17.3 62 16.6 96 96 ESE 9 15 29.80 1009 2 2 N/A
2:15 am 02:15 Cloudy with Mist and Fog 63 17.2 62 16.6 96 96 ESE 6 9 29.80 1009 1 2 N/A
2:35 am 02:35 Cloudy with Mist and Fog 63 17.3 62 16.7 96 96 E 6 9 29.80 1009 1 1 N/A
2:55 am 02:55 Cloudy with Mist and Fog 63 17.3 62 16.7 96 96 E 6 9 29.80 1009 1 1 N/A
3:15 am 03:15 Cloudy with Mist and Fog 63 17.3 62 16.8 97 97 ENE 7 11 29.80 1009 1 1 N/A
3:35 am 03:35 Cloudy with Mist and Fog 63 17.3 62 16.8 97 97 ENE 5 7 29.77 1008 1 2 N/A
3:55 am 03:55 Cloudy with Mist and Fog 63 17.3 62 16.8 97 97 NE 6 9 29.77 1008 1 2 0.01 0.25
4:15 am 04:15 Cloudy with Mist and Fog 63 17.4 62 16.9 97 97 NNW 3 6 29.80 1009 2 2 N/A
4:35 am 04:35 Cloudy with Mist and Fog 63 17.4 62 16.9 97 97 Calm 29.77 1008 2 2 N/A
4:55 am 04:55 Cloudy with Mist and Fog 64 17.5 63 17 97 97 NNE 5 7 29.77 1008 2 2 N/A
5:15 am 05:15 Cloudy with Mist and Fog 64 17.5 63 17 97 97 NNW 9 15 29.80 1009 2 3 N/A
5:35 am 05:35 Cloudy with Mist and Fog 63 17.4 62 16.9 97 97 NNW 7 11 29.80 1009 2 3 N/A
5:55 am 05:55 Cloudy with Mist and Fog 63 17.4 62 16.9 97 97 N 8 13 29.80 1009 3 4 N/A
6:15 am 06:15 Cloudy with Drizzle 60 15.7 59 15.2 97 97 N 9 15 29.77 1008 5 8 N/A
6:35 am 06:35 Cloudy 60 15.6 59 15.1 97 97 NNE 5 7 29.77 1008 10 16 N/A
6:55 am 06:55 Cloudy 60 15.6 59 15 96 96 ESE 5 7 29.77 1008 10 16 0.00 0.00
7:15 am 07:15 Cloudy 60 15.6 59 15 96 96 ESE 5 7 29.77 1008 10 16 N/A
7:35 am 07:35 Mostly Cloudy 60 15.8 59 15 95 95 Calm 29.77 1008 10 16 N/A
7:55 am 07:55 Mostly Cloudy 61 16.1 60 15.3 95 95 NW 5 7 29.77 1008 10 16 N/A
8:15 am 08:15 Cloudy with Nearby Thunderstorms 61 16.1 59 15.2 94 94 NW 8 13 29.80 1009 10 16 N/A
8:35 am 08:35 Cloudy 61 16.1 59 15.2 94 94 WNW 8 13 29.80 1009 10 16 N/A
8:55 am 08:55 Cloudy 62 16.4 60 15.4 94 94 NW 8 13 29.80 1009 10 16 N/A
9:15 am 09:15 Cloudy 62 16.5 60 15.4 93 93 WNW 9 15 29.83 1010 10 16 N/A
9:35 am 09:35 Cloudy 62 16.9 60 15.3 90 90 WNW 14 22 29.80 1009 10 16 N/A
9:55 am 09:55 Cloudy 63 17.1 59 15.1 88 88 NW 15 24 29.80 1009 10 16 N/A
10:15 am 10:15 Cloudy 63 17.1 59 14.8 86 86 WNW 12 19 29.77 1008 10 16 N/A
10:35 am 10:35 Partly Cloudy 65 18.1 60 15.4 84 84 NW 18 30 29.80 1009 10 16 N/A
10:55 am 10:55 Partly Cloudy 66 18.8 60 15.3 80 80 NW 18 30 29.77 1008 10 16 N/A
11:15 am 11:15 Partly Cloudy 66 18.9 59 14.9 78 78 NW 18 30 29.77 1008 10 16 N/A
11:35 am 11:35 Mostly Cloudy 67 19.5 60 15.3 77 77 NW 14 22 29.77 1008 10 16 N/A
11:55 am 11:55 Mostly Cloudy 66 18.9 58 14.6 76 76 NW 13 20 29.77 1008 10 16 N/A
12:15 pm 12:15 Cloudy 67 19.2 58 14.5 74 74 NW 15 24 29.77 1008 10 16 N/A
12:35 pm 12:35 Cloudy 67 19.7 59 14.9 74 74 NW 14 22 29.77 1008 10 16 N/A
12:55 pm 12:55 Cloudy 67 19.3 58 14.4 73 73 NW 16 26 29.74 1007 10 16 N/A
1:15 pm 13:15 Cloudy 68 19.9 59 14.9 73 73 NW 14 22 29.74 1007 10 16 N/A
1:35 pm 13:35 Cloudy 68 20.1 58 14.3 69 69 NNW 10 17 29.74 1007 10 16 N/A
1:55 pm 13:55 Cloudy 68 20.2 59 15.1 73 73 NW 10 17 29.74 1007 10 16 N/A
2:15 pm 14:15 Cloudy 69 20.5 59 14.8 70 70 WNW 14 22 29.74 1007 10 16 N/A
2:35 pm 14:35 Cloudy 69 20.3 59 14.9 71 71 NW 12 19 29.74 1007 10 16 N/A
2:55 pm 14:55 Cloudy 68 20.2 58 14.7 71 71 NW 12 19 29.74 1007 10 16 N/A
3:15 pm 15:15 Cloudy 67 19.7 58 14.5 72 72 NNW 8 13 29.74 1007 10 16 N/A
3:35 pm 15:35 Cloudy with Light Rain 66 19 58 14.4 75 75 NNW 8 13 29.74 1007 10 16 N/A
3:55 pm 15:55 Cloudy 67 19.7 59 15 74 74 NNW 12 19 29.74 1007 10 16 N/A
4:15 pm 16:15 Cloudy 65 18.4 56 13.5 73 73 N 20 31 29.80 1009 10 16 N/A
4:35 pm 16:35 Cloudy 66 18.8 57 13.7 72 72 N 16 26 29.77 1008 10 16 N/A
4:55 pm 16:55 Mostly Cloudy 65 18.4 56 13.5 73 73 N 15 24 29.80 1009 10 16 N/A
5:15 pm 17:15 Mostly Cloudy 64 17.8 55 13 74 74 NNW 10 17 29.83 1010 10 16 N/A
5:35 pm 17:35 Cloudy 64 17.5 55 12.7 74 74 NNW 13 20 29.83 1010 10 16 N/A
5:55 pm 17:55 Mostly Cloudy 64 17.8 55 12.6 72 72 NNW 16 26 29.83 1010 10 16 N/A
6:15 pm 18:15 Mostly Cloudy 64 17.6 54 12.1 70 70 NNW 15 24 29.83 1010 10 16 N/A
6:35 pm 18:35 Mostly Cloudy 63 17 53 11.4 70 70 NNW 16 26 29.83 1010 10 16 N/A
6:55 pm 18:55 Mostly Cloudy 63 17.2 53 11.7 70 70 NNW 16 26 29.85 1011 10 16 N/A
7:15 pm 19:15 Partly Cloudy 63 17 51 10.8 67 67 NNW 14 22 29.85 1011 10 16 N/A
7:35 pm 19:35 Sunny 62 16.5 50 10.1 66 66 NNW 13 20 29.85 1011 10 16 N/A
7:55 pm 19:55 Sunny 60 15.6 49 9.5 67 67 N 18 30 29.85 1011 10 16 N/A
8:15 pm 20:15 Sunny 59 14.9 49 9.7 71 71 NNW 12 19 29.88 1012 10 16 N/A
8:35 pm 20:35 Clear 59 14.9 49 9.6 71 71 NNW 9 15 29.91 1013 10 16 N/A
8:55 pm 20:55 Clear 57 14 50 10 77 77 NNW 7 11 29.91 1013 10 16 N/A
9:15 pm 21:15 Clear 56 13.5 51 10.4 82 82 NNW 6 9 29.91 1013 10 16 N/A
9:35 pm 21:35 Clear 56 13.3 51 10.7 84 84 NNW 7 11 29.91 1013 10 16 N/A
9:55 pm 21:55 Clear 55 13 51 10.6 85 85 N 8 13 29.91 1013 10 16 N/A
10:15 pm 22:15 Clear 55 12.8 51 10.5 86 86 NNW 6 9 29.94 1014 10 16 N/A
10:35 pm 22:35 Clear 55 12.6 50 10.1 85 85 NW 8 13 29.94 1014 10 16 N/A
10:55 pm 22:55 Clear 54 12.2 50 10.1 87 87 NW 8 13 29.97 1015 10 16 N/A
11:15 pm 23:15 Clear 54 12.1 50 10.2 88 88 NW 6 9 29.97 1015 10 16 N/A
11:35 pm 23:35 Clear 53 11.7 50 10 89 89 NW 5 7 29.97 1015 10 16 N/A
11:55 pm 23:55 Clear 53 11.5 50 10 91 91 NW 6 9 29.97 1015 10 16 N/A

Powered by AerisWeather